• In Czech Republic
  • List of Countries
  • For 7 days
  • Water Temperature
  • Satellite Maps
  • Weather Map
  • Weather Widgets
  • user-avatar
    Login

    Hourly Weather Abovyan

    Today, 11 December, Monday

    Time Temperature Precipitation Wind Pressure Humidity
    00:00 -2°C° 0 mm 2 mps 674 mmHg 60%
    01:00 -2°C° 0 mm 2 mps 674 mmHg 60%
    02:00 -2°C° 0 mm 2 mps 674 mmHg 60%
    03:00 -3°C° 0 mm 2 mps 674 mmHg 62%
    04:00 -3°C° 0 mm 2 mps 674 mmHg 62%
    05:00 -3°C° 0 mm 2 mps 674 mmHg 62%
    06:00 -3°C° 0 mm 2 mps 674 mmHg 62%
    07:00 0°C° 0 mm 1 mps 674 mmHg 60%
    08:00 +1°C° 0 mm 1 mps 674 mmHg 59%
    09:00 +2°C° 0 mm 1 mps 674 mmHg 58%
    10:00 +3°C° 0 mm 1 mps 674 mmHg 56%
    11:00 +5°C° 0 mm 1 mps 674 mmHg 54%
    12:00 +6°C° 0 mm 1 mps 674 mmHg 52%
    13:00 +6°C° 0 mm 1 mps 674 mmHg 53%
    14:00 +6°C° 0 mm 1 mps 674 mmHg 54%
    15:00 +6°C° 0 mm 1 mps 674 mmHg 54%
    16:00 +4°C° 0 mm 2 mps 675 mmHg 56%
    17:00 +2°C° 0 mm 2 mps 675 mmHg 57%
    18:00 +1°C° 0 mm 2 mps 676 mmHg 58%
    19:00 +1°C° 0 mm 2 mps 676 mmHg 59%
    20:00 +1°C° 0 mm 2 mps 676 mmHg 59%
    21:00 +1°C° 0 mm 2 mps 677 mmHg 60%
    22:00 -1°C° 0 mm 2 mps 677 mmHg 60%
    23:00 -1°C° 0 mm 2 mps 677 mmHg 60%

    Tomorrow, 12 December, Tuesday

    Time Temperature Precipitation Wind Pressure Humidity
    00:00 -1°C° 0 mm 2 mps 677 mmHg 60%
    01:00 +1°C° 0 mm 1 mps 677 mmHg 59%
    02:00 +1°C° 0 mm 1 mps 677 mmHg 59%
    03:00 +1°C° 0 mm 1 mps 677 mmHg 59%
    04:00 +1°C° 0 mm 1 mps 677 mmHg 59%
    05:00 +1°C° 0 mm 1 mps 677 mmHg 59%
    06:00 +1°C° 0 mm 1 mps 677 mmHg 59%
    07:00 +2°C° 0 mm 1 mps 677 mmHg 58%
    08:00 +3°C° 0 mm 1 mps 677 mmHg 56%
    09:00 +4°C° 0 mm 1 mps 678 mmHg 55%
    10:00 +6°C° 0 mm 1 mps 677 mmHg 53%
    11:00 +7°C° 0 mm 1 mps 677 mmHg 52%
    12:00 +8°C° 0 mm 1 mps 677 mmHg 50%
    13:00 +8°C° 0 mm 1 mps 677 mmHg 51%
    14:00 +9°C° 0 mm 1 mps 676 mmHg 51%
    15:00 +9°C° 0 mm 1 mps 676 mmHg 51%
    16:00 +7°C° 0 mm 1 mps 676 mmHg 51%
    17:00 +6°C° 0 mm 1 mps 676 mmHg 52%
    18:00 +5°C° 0 mm 1 mps 676 mmHg 52%
    19:00 +5°C° 0 mm 1 mps 676 mmHg 52%
    20:00 +5°C° 0 mm 1 mps 676 mmHg 51%
    21:00 +4°C° 0 mm 1 mps 676 mmHg 51%
    22:00 +4°C° 0 mm 1 mps 676 mmHg 51%
    23:00 +4°C° 0 mm 1 mps 676 mmHg 51%

    Day after tomorrow, 13 December, Wednesday

    Time Temperature Precipitation Wind Pressure Humidity
    00:00 +4°C° 0 mm 1 mps 676 mmHg 51%
    01:00 +4°C° 0 mm 1 mps 675 mmHg 52%
    02:00 +3°C° 0 mm 1 mps 675 mmHg 52%
    03:00 +3°C° 0 mm 1 mps 675 mmHg 52%
    04:00 +3°C° 0 mm 1 mps 675 mmHg 52%
    05:00 +3°C° 0 mm 1 mps 675 mmHg 52%
    06:00 +3°C° 0 mm 1 mps 674 mmHg 52%
    07:00 +4°C° 0 mm 1 mps 674 mmHg 51%
    08:00 +5°C° 0 mm 1 mps 675 mmHg 50%
    09:00 +6°C° 0 mm 1 mps 675 mmHg 48%
    10:00 +7°C° 0 mm 1 mps 675 mmHg 48%
    11:00 +8°C° 0 mm 1 mps 674 mmHg 47%
    12:00 +10°C° 0 mm 1 mps 674 mmHg 46%
    13:00 +9°C° 0 mm 1 mps 674 mmHg 46%
    14:00 +9°C° 0 mm 1 mps 673 mmHg 46%
    15:00 +9°C° 0 mm 1 mps 673 mmHg 45%
    16:00 +8°C° 0 mm 1 mps 673 mmHg 47%
    17:00 +6°C° 0 mm 1 mps 673 mmHg 49%
    18:00 +5°C° 0 mm 1 mps 673 mmHg 51%
    19:00 +5°C° 0 mm 1 mps 673 mmHg 52%
    20:00 +5°C° 0 mm 1 mps 673 mmHg 52%
    21:00 +4°C° 0 mm 1 mps 673 mmHg 53%
    22:00 +4°C° 0 mm 1 mps 673 mmHg 53%
    23:00 +4°C° 0 mm 1 mps 673 mmHg 54%

    14 December, Thursday

    Time Temperature Precipitation Wind Pressure Humidity
    00:00 +4°C° 0 mm 1 mps 672 mmHg 55%
    01:00 +3°C° 0 mm 1 mps 672 mmHg 56%
    02:00 +3°C° 0 mm 1 mps 672 mmHg 57%
    03:00 +3°C° 0 mm 1 mps 672 mmHg 58%
    04:00 +3°C° 0 mm 1 mps 672 mmHg 59%
    05:00 +3°C° 0 mm 1 mps 672 mmHg 59%
    06:00 +2°C° 0 mm 1 mps 672 mmHg 60%
    07:00 +3°C° 0 mm 1 mps 672 mmHg 57%
    08:00 +4°C° 0 mm 1 mps 673 mmHg 54%
    09:00 +5°C° 0 mm 1 mps 673 mmHg 51%
    10:00 +6°C° 0 mm 1 mps 673 mmHg 49%
    11:00 +7°C° 0 mm 1 mps 673 mmHg 47%
    12:00 +9°C° 0 mm 1 mps 672 mmHg 45%
    13:00 +8°C° 0 mm 1 mps 672 mmHg 45%
    14:00 +8°C° 0 mm 1 mps 672 mmHg 45%
    15:00 +8°C° 0 mm 1 mps 672 mmHg 45%
    16:00 +7°C° 0 mm 1 mps 672 mmHg 47%
    17:00 +5°C° 0 mm 1 mps 671 mmHg 48%
    18:00 +4°C° 0 mm 1 mps 671 mmHg 50%
    19:00 +4°C° 0 mm 1 mps 672 mmHg 49%
    20:00 +4°C° 0 mm 1 mps 672 mmHg 49%
    21:00 +3°C° 0 mm 1 mps 672 mmHg 49%
    22:00 +3°C° 0 mm 1 mps 672 mmHg 49%
    23:00 +3°C° 0 mm 1 mps 672 mmHg 49%

    15 December, Friday

    Time Temperature Precipitation Wind Pressure Humidity
    00:00 +3°C° 0 mm 1 mps 671 mmHg 49%
    01:00 +2°C° 0 mm 1 mps 671 mmHg 49%
    02:00 +2°C° 0 mm 1 mps 671 mmHg 50%
    03:00 +2°C° 0 mm 1 mps 671 mmHg 50%
    04:00 +2°C° 0 mm 1 mps 671 mmHg 51%
    05:00 +2°C° 0 mm 1 mps 671 mmHg 52%
    06:00 +1°C° 0 mm 1 mps 671 mmHg 52%
    07:00 +2°C° 0 mm 1 mps 671 mmHg 51%
    08:00 +3°C° 0 mm 1 mps 672 mmHg 50%
    09:00 +4°C° 0 mm 1 mps 672 mmHg 49%
    10:00 +5°C° 0 mm 1 mps 672 mmHg 47%
    11:00 +7°C° 0 mm 1 mps 672 mmHg 45%
    12:00 +8°C° 0 mm 1 mps 672 mmHg 42%
    13:00 +8°C° 0 mm 1 mps 672 mmHg 42%
    14:00 +8°C° 0 mm 1 mps 671 mmHg 42%
    15:00 +7°C° 0 mm 0 mps 671 mmHg 42%
    16:00 +7°C° 0 mm 1 mps 672 mmHg 44%
    17:00 +5°C° 0 mm 1 mps 672 mmHg 45%
    18:00 +4°C° 0 mm 1 mps 672 mmHg 47%
    19:00 +4°C° 0 mm 1 mps 672 mmHg 46%
    20:00 +3°C° 0 mm 1 mps 673 mmHg 46%
    21:00 +3°C° 0 mm 1 mps 673 mmHg 45%
    22:00 +3°C° 0 mm 1 mps 673 mmHg 45%
    23:00 +3°C° 0 mm 1 mps 673 mmHg 45%

    16 December, Saturday

    Time Temperature Precipitation Wind Pressure Humidity
    00:00 +2°C° 0 mm 1 mps 673 mmHg 44%
    01:00 +2°C° 0 mm 1 mps 673 mmHg 44%
    02:00 +2°C° 0 mm 1 mps 673 mmHg 44%
    03:00 +2°C° 0 mm 1 mps 673 mmHg 44%
    04:00 +2°C° 0 mm 1 mps 673 mmHg 45%
    05:00 +1°C° 0 mm 1 mps 673 mmHg 45%
    06:00 +1°C° 0 mm 1 mps 673 mmHg 45%
    07:00 +2°C° 0 mm 1 mps 674 mmHg 44%
    08:00 +3°C° 0 mm 1 mps 674 mmHg 43%
    09:00 +4°C° 0 mm 1 mps 675 mmHg 42%
    10:00 +5°C° 0 mm 1 mps 675 mmHg 40%
    11:00 +6°C° 0 mm 1 mps 675 mmHg 39%
    12:00 +7°C° 0 mm 1 mps 674 mmHg 37%
    13:00 +7°C° 0 mm 1 mps 674 mmHg 37%
    14:00 +7°C° 0 mm 1 mps 674 mmHg 38%
    15:00 +7°C° 0 mm 1 mps 674 mmHg 39%
    16:00 +6°C° 0 mm 1 mps 674 mmHg 40%
    17:00 +5°C° 0 mm 1 mps 674 mmHg 42%
    18:00 +3°C° 0 mm 1 mps 674 mmHg 44%
    19:00 +3°C° 0 mm 1 mps 675 mmHg 44%
    20:00 +3°C° 0 mm 1 mps 675 mmHg 44%
    21:00 +3°C° 0 mm 1 mps 675 mmHg 44%
    22:00 +2°C° 0 mm 1 mps 675 mmHg 44%
    23:00 +2°C° 0 mm 1 mps 675 mmHg 44%
    Show more